This is the latest recevied weather packets stored in our database for station/object K5EAA-13. If no packets are shown the sender has not sent any weather packets the latest 10 day(s).
| Time | Temp. | Humidity | Pressure | Rain* | Wind** | Luminosity | Snow |
|---|---|---|---|---|---|---|---|
| 1787748298 | 28.89° C | 57% | 1014 hPa | 0 mm | - | 44 W/m² | - |
| 1787747994 | 28.89° C | 57% | 1013.8 hPa | 0 mm | - | 37 W/m² | - |
| 1787747689 | 28.89° C | 58% | 1014.1 hPa | 0 mm | - | 36 W/m² | - |
| 1787747389 | 28.89° C | 59% | 1014 hPa | 0 mm | - | 35 W/m² | - |
| 1787747084 | 28.89° C | 59% | 1014 hPa | 0 mm | - | 32 W/m² | - |
| 1787746781 | 28.33° C | 59% | 1013.8 hPa | 0 mm | - | 28 W/m² | - |
| 1787746479 | 28.33° C | 59% | 1013.6 hPa | 0 mm | - | 19 W/m² | - |
| 1787746178 | 28.33° C | 58% | 1013.6 hPa | 0 mm | - | 14 W/m² | - |
| 1787745873 | 28.33° C | 58% | 1013.5 hPa | 0 mm | - | 8 W/m² | - |
| 1787745571 | 28.33° C | 58% | 1013.6 hPa | 0 mm | - | 4 W/m² | - |
| 1787745267 | 28.89° C | 58% | 1013.5 hPa | 0 mm | - | 2 W/m² | - |
| 1787744962 | 28.89° C | 58% | 1013.6 hPa | 0 mm | - | 1 W/m² | - |
| 1787744658 | 28.89° C | 58% | 1013.6 hPa | 0 mm | - | 0 W/m² | - |
| 1787744354 | 28.89° C | 57% | 1013.5 hPa | 0 mm | - | 0 W/m² | - |
| 1787744049 | 28.89° C | 58% | 1013.2 hPa | 0 mm | - | 0 W/m² | - |
| 1787743749 | 28.89° C | 58% | 1013.4 hPa | 0 mm | - | 0 W/m² | - |
| 1787743449 | 28.89° C | 58% | 1013.4 hPa | 0 mm | - | 0 W/m² | - |
| 1787743145 | 28.33° C | 59% | 1013.4 hPa | 0 mm | - | 0 W/m² | - |
| 1787742840 | 28.89° C | 59% | 1013.3 hPa | 0 mm | - | 0 W/m² | - |
| 1787742536 | 28.89° C | 59% | 1013.5 hPa | 0 mm | - | 0 W/m² | - |
| 1787742231 | 28.33° C | 60% | 1013.3 hPa | 0 mm | - | 0 W/m² | - |
| 1787741927 | 28.89° C | 60% | 1013.3 hPa | 0 mm | - | 0 W/m² | - |
| 1787741623 | 28.89° C | 60% | 1013.2 hPa | 0 mm | - | 0 W/m² | - |
| 1787741319 | 28.89° C | 60% | 1013.3 hPa | 0 mm | - | 0 W/m² | - |
| 1787741017 | 28.89° C | 59% | 1013.3 hPa | 0 mm | - | 0 W/m² | - |
* Rain latest hour (hover to see other rain measurements)
** Current wind speed in m/s (hover to see current wind gust speed)